TimeCDT,TemperatureF,Dew PointF,Humidity,Sea Level PressureIn,VisibilityMPH,Wind Direction,Wind SpeedMPH,Gust SpeedMPH,PrecipitationIn,Events,Conditions,WindDirDegrees,DateUTC
12:54 AM,73.0,66.9,81,29.85,10.0,Calm,Calm,-,N/A,,Clear,0,2013-06-30 05:54:00
1:54 AM,72.0,66.9,84,29.85,10.0,Calm,Calm,-,N/A,,Clear,0,2013-06-30 06:54:00
2:54 AM,70.0,64.9,84,29.83,10.0,Calm,Calm,-,N/A,,Clear,0,2013-06-30 07:54:00
3:54 AM,69.1,64.0,84,29.83,10.0,Calm,Calm,-,N/A,,Clear,0,2013-06-30 08:54:00
4:54 AM,69.1,63.0,81,29.83,10.0,Calm,Calm,-,N/A,,Clear,0,2013-06-30 09:54:00
5:54 AM,66.9,63.0,87,29.85,10.0,Calm,Calm,-,N/A,,Clear,0,2013-06-30 10:54:00
6:54 AM,66.0,62.1,87,29.85,10.0,Calm,Calm,-,N/A,,Clear,0,2013-06-30 11:54:00
7:54 AM,77.0,64.9,66,29.87,10.0,Calm,Calm,-,N/A,,Clear,0,2013-06-30 12:54:00
8:54 AM,82.9,61.0,47,29.87,10.0,Calm,Calm,-,N/A,,Clear,0,2013-06-30 13:54:00
9:54 AM,86.0,61.0,43,29.87,10.0,Variable,4.6,-,N/A,,Clear,0,2013-06-30 14:54:00
10:54 AM,89.1,60.1,38,29.87,10.0,Variable,4.6,-,N/A,,Clear,0,2013-06-30 15:54:00
11:54 AM,90.0,57.0,33,29.88,10.0,Variable,5.8,-,N/A,,Clear,0,2013-06-30 16:54:00
12:54 PM,91.9,57.0,31,29.86,10.0,Variable,6.9,-,N/A,,Partly Cloudy,0,2013-06-30 17:54:00
1:54 PM,91.9,55.0,29,29.86,10.0,Variable,5.8,-,N/A,,Partly Cloudy,0,2013-06-30 18:54:00
2:54 PM,93.0,55.9,29,29.85,10.0,North,9.2,-,N/A,,Clear,10,2013-06-30 19:54:00
3:54 PM,93.9,57.9,30,29.85,10.0,Variable,3.5,-,N/A,,Mostly Cloudy,0,2013-06-30 20:54:00
4:54 PM,91.9,57.0,31,29.84,10.0,Variable,5.8,-,N/A,,Partly Cloudy,0,2013-06-30 21:54:00
5:54 PM,91.0,55.0,29,29.83,10.0,Variable,3.5,-,N/A,,Clear,0,2013-06-30 22:54:00
6:54 PM,89.1,57.0,34,29.84,10.0,Variable,3.5,-,N/A,,Partly Cloudy,0,2013-06-30 23:54:00
7:54 PM,84.0,57.0,40,29.85,10.0,Variable,3.5,-,N/A,,Clear,0,2013-07-01 00:54:00
8:54 PM,79.0,59.0,50,29.87,10.0,Calm,Calm,-,N/A,,Clear,0,2013-07-01 01:54:00
9:54 PM,75.0,61.0,62,29.89,10.0,Calm,Calm,-,N/A,,Clear,0,2013-07-01 02:54:00
10:54 PM,73.9,62.1,66,29.90,10.0,Calm,Calm,-,N/A,,Clear,0,2013-07-01 03:54:00
11:54 PM,75.0,60.1,60,29.91,10.0,Calm,Calm,-,N/A,,Clear,0,2013-07-01 04:54:00